Location: Corcelles
(46.1547°N, 4.7234°E)
Time: 10:31:22
(UTC+00:00)

Iridium 4 Rocket - Pass Details

Date: 14 July 2020
Orbit: 583 x 906 km, 86.9° (Epoch: 05 August)

Event Time Altitude Azimuth Distance (km) Brightness Sun altitude
Exits shadow 00:24:12 44° 170° (S) 1,165 4.0 -21.7°
Maximum altitude 00:26:04 80° 91° (E) 859 3.7 -21.6°
Drops below altitude 10° 00:31:25 10° 5° (N) 2,368 7.2 -21.5°
Sets 00:33:42 0° 4° (N) 3,253 8.3 -21.4°
